GW0774 Weather Reports


time (UTC)temp
C
wind
direction
speed
KPH
gust
KPH
rain 1hr
cm
rain 24hr
cm
rain mn
cm
humidity
%
barometer
mb
20260906193539 6 90 30.6 53.1 0.13 3.84 3.30 93 1001.4
20260906193048 6 114 30.6 49.9 0.13 3.84 3.28 94 1001.4
20260906192539 6 93 32.2 54.7 0.10 3.81 3.28 94 1001.3
20260906192039 6 86 30.6 54.7 0.13 3.81 3.28 94 1001.2
20260906191604 7 101 25.7 49.9 0.10 3.78 3.25 94 1001.1
20260906191043 7 86 25.7 49.9 0.10 3.78 3.25 94 1000.5
20260906190539 7 117 32.2 56.3 0.13 3.78 3.25 94 1000.2
20260906190106 7 98 30.6 56.3 0.13 3.78 3.25 94 1000.1
20260906185539 7 122 29.0 53.1 0.13 3.76 3.23 94 999.9
20260906185039 7 79 32.2 53.1 0.10 3.76 3.20 94 999.8
20260906184604 7 98 32.2 53.1 0.10 3.73 3.17 93 1000.2
20260906184039 7 95 30.6 46.7 0.10 3.71 3.17 94 1000.3
20260906183539 7 89 27.4 41.8 0.13 3.71 3.17 94 1000.1
20260906183115 7 105 27.4 46.7 0.13 3.68 3.15 94 999.9
20260906182538 7 90 27.4 51.5 0.15 3.68 3.15 94 999.8
20260906182042 7 92 30.6 53.1 0.13 3.66 3.12 94 999.9
20260906181600 7 102 32.2 53.1 0.15 3.66 3.12 94 1000.0
20260906181036 7 133 30.6 49.9 0.15 3.66 3.10 94 1000.0
20260906180540 7 88 29.0 56.3 0.18 3.66 3.10 94 1000.2
20260906180115 7 102 29.0 56.3 0.18 3.66 3.10 94 1000.3
20260906175540 7 83 32.2 51.5 0.18 3.63 3.10 93 1000.6
20260906175040 7 78 32.2 51.5 0.18 3.61 3.07 94 1000.6
20260906174556 7 84 29.0 41.8 0.25 3.61 3.07 94 1000.8
20260906174037 8 98 25.7 41.8 0.28 3.58 3.05 94 1000.6
20260906173536 8 73 24.1 41.8 0.28 3.56 3.02 94 1000.6
20260906173101 8 96 20.9 41.8 0.33 3.56 3.00 94 1000.7
20260906172537 8 94 25.7 41.8 0.36 3.53 3.00 94 1000.5
20260906172036 8 113 20.9 45.1 0.38 3.53 3.00 94 1000.7
20260906171557 8 126 27.4 45.1 0.38 3.51 2.97 94 1000.7
20260906171039 8 85 27.4 40.2 0.41 3.48 2.95 94 1000.8
20260906170537 8 94 19.3 38.6 0.43 3.48 2.92 94 1000.8
20260906170056 8 103 24.1 43.5 0.46 3.45 2.90 94 1000.8
20260906165536 8 68 27.4 46.7 0.46 3.43 2.90 94 1000.4
20260906165039 8 86 24.1 48.3 0.46 3.38 2.84 94 1000.4
20260906164552 8 62 24.1 48.3 0.43 3.35 2.82 94 1000.3
20260906164037 8 107 14.5 38.6 0.43 3.30 2.77 95 1000.2
20260906163539 8 82 19.3 38.6 0.46 3.28 2.72 95 1000.1
20260906163049 8 103 22.5 38.6 0.43 3.20 2.67 94 1000.0
20260906162536 8 93 20.9 38.6 0.46 3.17 2.62 94 999.9
20260906162038 8 117 22.5 38.6 0.56 3.12 2.59 95 999.9
20260906161601 8 98 20.9 45.1 0.64 3.10 2.57 94 999.9
20260906161036 8 92 32.2 48.3 0.64 3.07 2.54 94 1000.1
20260906160539 8 88 27.4 48.3 0.64 3.02 2.49 94 1000.1
20260906160135 8 89 29.0 43.5 0.61 2.97 2.44 95 1000.1
20260906155536 8 93 25.7 40.2 0.66 2.95 2.41 95 1000.1
20260906155040 8 105 22.5 33.8 0.79 2.92 2.39 95 1000.2
20260906154552 9 80 20.9 32.2 0.84 2.90 2.36 95 1000.3
20260906154037 9 84 17.7 27.4 0.84 2.84 2.31 95 1000.2
20260906153539 9 82 17.7 27.4 0.91 2.82 2.26 95 1000.2
20260906153059 9 80 16.1 24.1 0.94 2.77 2.24 95 1000.2
20260906152538 9 94 11.3 19.3 0.86 2.69 2.16 95 1000.7
20260906152036 10 97 12.9 24.1 0.76 2.54 2.01 95 1000.6
20260906151557 10 90 14.5 24.1 0.74 2.44 1.91 95 1000.4
20260906151041 10 91 14.5 22.5 0.74 2.41 1.88 95 1000.3
20260906150539 10 119 12.9 22.5 0.74 2.36 1.83 95 1000.3
20260906150056 10 92 14.5 20.9 0.74 2.34 1.78 95 1000.1
20260906145539 10 80 9.7 24.1 0.71 2.26 1.73 95 1000.5
20260906145039 11 88 4.8 24.1 0.61 2.11 1.57 95 1000.7
20260906144554 11 56 9.7 20.9 0.64 2.06 1.50 95 1000.5
20260906144038 12 92 12.9 19.3 0.69 1.98 1.45 95 1000.6
20260906143543 12 90 3.2 12.9 0.64 1.88 1.35 96 1000.7
20260906143050 12 105 4.8 12.9 0.64 1.83 1.30 96 1000.7
20260906142539 12 111 6.4 12.9 0.66 1.78 1.24 96 1000.7
20260906142042 12 107 3.2 6.4 0.69 1.78 1.22 96 1000.9
20260906141601 12 107 0.0 6.4 0.66 1.70 1.17 96 1001.1
20260906141039 12 109 3.2 6.4 0.64 1.65 1.12 96 1001.1
20260906140542 12 94 1.6 6.4 0.66 1.60 1.07 96 1001.4
20260906140056 12 97 1.6 4.8 0.66 1.57 1.02 96 1001.3
20260906135540 12 92 0.0 3.2 0.66 1.52 0.99 96 1001.3
20260906135039 12 88 0.0 3.2 0.64 1.50 0.94 96 1001.5
20260906134554 12 88 0.0 4.8 0.58 1.40 0.84 96 1001.6
20260906134039 12 88 1.6 4.8 0.53 1.30 0.74 96 1001.5
20260906133539 12 0 0.0 3.2 0.48 1.22 0.69 95 1001.6
20260906133104 12 231 0.0 1.6 0.43 1.14 0.61 95 1001.6
20260906132540 12 234 0.0 1.6 0.43 1.12 0.56 95 1001.7
20260906132039 12 236 0.0 1.6 0.43 1.07 0.53 95 1001.8
20260906131557 12 236 0.0 1.6 0.38 1.02 0.46 95 1001.8
20260906131039 12 0 0.0 1.6 0.36 0.97 0.43 95 1001.9
20260906130539 12 0 0.0 1.6 0.36 0.94 0.38 95 1001.7
20260906130104 12 0 0.0 0.0 0.33 0.89 0.36 95 1001.8
20260906125543 12 0 0.0 1.6 0.36 0.84 0.30 95 1001.8
20260906125039 12 236 0.0 1.6 0.36 0.81 0.28 95 1001.9
20260906124600 12 0 0.0 0.0 0.36 0.79 0.25 95 1001.9
20260906124042 12 0 0.0 0.0 0.36 0.74 0.20 95 1002.0
20260906123542 12 0 0.0 0.0 0.36 0.74 0.18 95 1001.8
20260906123058 12 0 0.0 3.2 0.36 0.71 0.18 95 1002.0
20260906122541 12 0 0.0 3.2 0.36 0.66 0.13 95 1002.0
20260906122040 12 236 1.6 3.2 0.36 0.64 0.08 95 1002.2
20260906121558 12 0 1.6 3.2 0.36 0.61 0.08 95 1002.1
20260906121039 12 236 0.0 1.6 0.36 0.56 0.03 94 1002.1
20260906120539 12 0 0.0 1.6 0.36 0.56 0.03 94 1002.1
20260906120052 12 236 0.0 1.6 0.36 0.53 0.00 94 1002.1
20260906115539 12 0 0.0 1.6 0.28 0.46 0.46 94 1002.2
20260906115039 12 0 0.0 4.8 0.28 0.43 0.43 94 1002.2
20260906114557 12 0 0.0 4.8 0.28 0.41 0.41 94 1002.3
20260906114036 12 236 1.6 4.8 0.28 0.38 0.38 94 1002.4
20260906113539 12 61 0.0 6.4 0.28 0.36 0.36 94 1002.5
20260906113058 12 63 1.6 6.4 0.25 0.33 0.33 94 1002.4
20260906112539 12 264 1.6 6.4 0.23 0.30 0.30 94 1002.6
20260906112043 12 79 0.0 9.7 0.20 0.28 0.28 94 1002.5
20260906111555 12 270 1.6 9.7 0.20 0.25 0.25 94 1002.6
20260906111039 12 244 4.8 9.7 0.18 0.20 0.20 93 1002.6
20260906110540 12 239 0.0 4.8 0.15 0.18 0.18 93 1002.5
20260906110053 12 0 0.0 6.4 0.15 0.18 0.18 93 1002.6
20260906105542 12 238 3.2 6.4 0.13 0.15 0.15 93 1002.7
20260906105039 12 113 1.6 6.4 0.10 0.13 0.13 93 1002.6
20260906104548 12 0 0.0 6.4 0.10 0.13 0.13 93 1002.6
20260906104042 12 262 3.2 8.0 0.08 0.10 0.10 93 1002.7
20260906103540 12 267 3.2 9.7 0.08 0.08 0.08 92 1002.8
20260906103058 12 271 4.8 11.3 0.08 0.08 0.08 92 1002.8
20260906102539 12 252 3.2 11.3 0.08 0.08 0.08 92 1002.9
20260906102038 12 330 3.2 11.3 0.05 0.05 0.05 92 1002.9
20260906101554 12 266 1.6 9.7 0.03 0.03 0.03 92 1003.0
20260906101042 12 286 3.2 11.3 0.03 0.03 0.03 91 1003.0
20260906100539 12 0 1.6 11.3 0.03 0.03 0.03 91 1003.0
20260906100050 12 270 3.2 11.3 0.00 0.00 0.00 91 1003.0
20260906095542 12 0 1.6 9.7 0.00 0.00 0.00 91 1003.1
20260906095043 12 263 3.2 9.7 0.00 0.00 0.00 91 1003.1
20260906094558 12 265 4.8 11.3 0.00 0.00 0.00 90 1003.1
20260906094040 12 271 4.8 11.3 0.00 0.00 0.00 90 1003.1
20260906093539 13 224 4.8 16.1 0.00 0.00 0.00 90 1003.0
20260906093058 13 264 6.4 16.1 0.00 0.00 0.00 89 1003.1
20260906092543 13 248 3.2 11.3 0.00 0.00 0.00 89 1003.0
20260906092040 13 259 4.8 9.7 0.00 0.00 0.00 89 1003.0
20260906091556 13 268 3.2 11.3 0.00 0.00 0.00 88 1003.0
20260906091039 13 270 6.4 16.1 0.00 0.00 0.00 87 1003.0
20260906090540 13 261 4.8 16.1 0.00 0.00 0.00 87 1002.9
20260906090103 13 261 6.4 16.1 0.00 0.00 0.00 86 1003.0
20260906085540 13 275 4.8 11.3 0.00 0.00 0.00 86 1003.0
20260906085039 13 261 4.8 11.3 0.00 0.00 0.00 86 1003.0
20260906084558 13 257 4.8 9.7 0.00 0.00 0.00 86 1003.1
20260906084040 13 276 4.8 12.9 0.00 0.00 0.00 85 1003.1
20260906083539 13 274 4.8 12.9 0.00 0.00 0.00 85 1003.1
20260906083056 13 262 4.8 12.9 0.00 0.00 0.00 85 1003.2
20260906082539 13 262 6.4 14.5 0.00 0.00 0.00 85 1003.2
20260906082042 13 261 6.4 14.5 0.00 0.00 0.00 84 1003.2
20260906081607 13 270 6.4 14.5 0.00 0.00 0.00 83 1003.3
20260906081039 13 273 9.7 17.7 0.00 0.00 0.00 82 1003.2
20260906080539 13 295 9.7 17.7 0.00 0.00 0.00 81 1003.4
20260906080054 13 272 9.7 17.7 0.00 0.00 0.00 81 1003.4
20260906075539 14 266 8.0 19.3 0.00 0.00 0.00 80 1003.4
20260906075039 14 279 9.7 25.7 0.00 0.00 0.00 80 1003.5
20260906074605 14 288 11.3 25.7 0.00 0.00 0.00 79 1003.5
20260906074038 14 268 12.9 27.4 0.00 0.00 0.00 79 1003.6
20260906073542 14 271 12.9 27.4 0.00 0.00 0.00 78 1003.5
20260906073054 14 273 12.9 27.4 0.00 0.00 0.00 78 1003.6
20260906072540 14 269 12.9 27.4 0.00 0.00 0.00 77 1003.4
20260906072043 14 277 11.3 24.1 0.00 0.00 0.00 77 1003.5
20260906071556 14 280 12.9 22.5 0.00 0.00 0.00 77 1003.6
20260906071039 14 315 9.7 19.3 0.00 0.00 0.00 77 1003.5
20260906070540 14 260 9.7 17.7 0.00 0.00 0.00 77 1003.5
20260906070054 14 269 11.3 17.7 0.00 0.00 0.00 76 1003.6
20260906065539 14 314 11.3 19.3 0.00 0.00 0.00 76 1003.8
20260906065037 14 278 12.9 22.5 0.00 0.00 0.00 76 1003.7
20260906064559 14 348 12.9 22.5 0.00 0.00 0.00 75 1003.7
20260906064038 14 305 14.5 22.5 0.00 0.00 0.00 75 1003.6
20260906063538 14 267 11.3 22.5 0.00 0.00 0.00 76 1003.5
20260906063058 14 274 11.3 20.9 0.00 0.00 0.00 75 1003.5
20260906062538 14 350 8.0 22.5 0.00 0.00 0.00 75 1003.4
20260906062038 14 267 11.3 22.5 0.00 0.00 0.00 75 1003.5
20260906061607 13 257 6.4 20.9 0.00 0.00 0.00 76 1003.4
20260906061039 14 229 4.8 20.9 0.00 0.00 0.00 75 1003.4
20260906060539 14 265 9.7 20.9 0.00 0.00 0.00 75 1003.3
20260906060055 14 268 6.4 17.7 0.00 0.00 0.00 75 1003.5
20260906055539 14 299 9.7 17.7 0.00 0.00 0.00 74 1003.5
20260906055036 14 290 11.3 20.9 0.00 0.00 0.00 73 1003.4
20260906054559 14 288 11.3 25.7 0.00 0.00 0.00 73 1003.4
20260906054041 14 264 9.7 25.7 0.00 0.00 0.00 73 1003.6
20260906053539 14 271 9.7 19.3 0.00 0.00 0.00 73 1003.8
20260906053100 14 280 9.7 24.1 0.00 0.00 0.00 73 1003.8
20260906052548 15 273 11.3 27.4 0.00 0.00 0.00 72 1004.0
20260906052040 15 269 16.1 33.8 0.00 0.00 0.00 71 1004.2
20260906051603 15 277 16.1 33.8 0.00 0.00 0.00 71 1004.4
20260906051039 15 297 12.9 22.5 0.00 0.00 0.00 72 1004.5
20260906050543 14 321 6.4 17.7 0.00 0.00 0.00 74 1004.4
20260906050056 15 284 8.0 25.7 0.00 0.00 0.00 73 1004.4
20260906045543 15 267 11.3 25.7 0.00 0.00 0.00 72 1004.5
20260906045039 15 286 12.9 29.0 0.00 0.00 0.00 71 1004.4
20260906044559 15 292 16.1 29.0 0.00 0.00 0.00 71 1004.4
20260906044040 15 284 16.1 29.0 0.00 0.00 0.00 71 1004.6
20260906043539 15 248 16.1 27.4 0.00 0.00 0.00 70 1004.6
20260906043056 15 275 17.7 27.4 0.00 0.00 0.00 70 1004.6
20260906042542 15 306 16.1 30.6 0.00 0.00 0.00 70 1004.8
20260906042039 15 283 14.5 30.6 0.00 0.00 0.00 69 1004.9
20260906041555 15 300 17.7 30.6 0.00 0.00 0.00 68 1005.0
20260906041038 15 277 16.1 30.6 0.00 0.00 0.00 68 1005.1
20260906040539 15 281 16.1 30.6 0.00 0.00 0.00 70 1005.1
20260906040105 16 279 17.7 25.7 0.00 0.00 0.00 68 1005.2
20260906035541 16 269 16.1 25.7 0.00 0.00 0.00 68 1005.1
20260906035036 16 283 16.1 24.1 0.00 0.00 0.00 67 1005.2
20260906034559 16 292 12.9 25.7 0.00 0.00 0.00 69 1005.1
20260906034038 16 292 12.9 25.7 0.00 0.00 0.00 68 1005.1
20260906033538 16 267 16.1 25.7 0.00 0.00 0.00 68 1005.3
20260906033058 16 270 16.1 27.4 0.00 0.00 0.00 67 1005.3
20260906032539 16 323 14.5 27.4 0.00 0.00 0.00 68 1005.4
20260906032041 16 267 16.1 30.6 0.00 0.00 0.00 68 1005.6
20260906031607 16 304 17.7 30.6 0.00 0.00 0.00 69 1005.7
20260906031040 16 275 19.3 27.4 0.00 0.00 0.00 68 1005.7
20260906030540 16 278 19.3 29.0 0.00 0.00 0.00 69 1005.7
20260906030059 16 268 17.7 29.0 0.00 0.00 0.00 68 1005.7
20260906025538 16 11 16.1 27.4 0.00 0.05 0.00 67 1005.6
20260906025040 16 271 16.1 27.4 0.00 0.05 0.00 67 1005.7
20260906024558 16 288 17.7 27.4 0.00 0.05 0.00 66 1005.7
20260906024039 16 281 14.5 27.4 0.00 0.05 0.00 66 1005.7
20260906023540 17 284 14.5 27.4 0.00 0.05 0.00 65 1005.6
20260906023055 17 280 12.9 25.7 0.00 0.05 0.00 68 1005.7
20260906022539 17 286 16.1 27.4 0.00 0.05 0.00 66 1005.7
20260906022042 17 347 11.3 40.2 0.00 0.05 0.00 65 1005.7
20260906021557 17 278 16.1 43.5 0.00 0.05 0.00 66 1005.8
20260906021038 17 274 24.1 43.5 0.00 0.05 0.00 64 1005.8
20260906020539 17 279 19.3 43.5 0.00 0.05 0.00 63 1006.0
20260906015539 17 279 17.7 29.0 0.00 0.05 0.00 66 1006.2
20260906015039 17 294 14.5 30.6 0.00 0.05 0.00 64 1006.3
20260906014552 17 269 17.7 30.6 0.00 0.05 0.00 67 1006.4
20260906014039 17 254 19.3 30.6 0.00 0.05 0.00 64 1006.5
20260906013539 17 262 14.5 27.4 0.00 0.05 0.00 68 1006.6
20260906013103 17 67 14.5 30.6 0.00 0.05 0.00 68 1006.7
20260906012543 17 265 14.5 30.6 0.00 0.05 0.00 68 1006.8
20260906012038 16 270 16.1 32.2 0.00 0.05 0.00 69 1006.8
20260906011550 16 286 17.7 32.2 0.00 0.05 0.00 68 1006.8
20260906011038 16 292 14.5 38.6 0.00 0.05 0.00 70 1006.9
20260906010539 16 296 22.5 38.6 0.00 0.05 0.00 68 1007.2
20260906010059 16 286 17.7 37.0 0.00 0.05 0.00 73 1007.5
20260906005540 16 283 17.7 37.0 0.00 0.05 0.00 73 1007.6
20260906005039 16 256 19.3 33.8 0.00 0.05 0.00 73 1007.8
20260906004554 16 301 20.9 33.8 0.00 0.05 0.00 71 1007.9
20260906004039 16 241 19.3 32.2 0.00 0.05 0.00 73 1008.0
20260906003539 16 290 20.9 33.8 0.00 0.05 0.00 73 1008.2
20260906003050 16 267 19.3 33.8 0.00 0.05 0.00 75 1008.4
20260906002540 15 284 19.3 30.6 0.00 0.05 0.00 75 1008.6
20260906002039 15 242 12.9 22.5 0.00 0.05 0.00 78 1008.6
20260906001547 15 260 14.5 24.1 0.00 0.05 0.00 78 1008.9
20260906001039 15 281 11.3 29.0 0.00 0.05 0.00 78 1009.0
20260906000539 15 266 12.9 29.0 0.00 0.05 0.00 77 1009.1
20260906000057 15 286 16.1 29.0 0.00 0.05 0.00 78 1009.2
20260905235539 15 298 17.7 29.0 0.00 0.05 0.00 79 1009.3
20260905235038 15 284 16.1 29.0 0.00 0.05 0.00 79 1009.3
20260905234553 15 309 17.7 27.4 0.00 0.05 0.00 79 1009.5
20260905234039 15 262 14.5 24.1 0.00 0.05 0.00 81 1009.6
20260905233539 14 279 12.9 27.4 0.00 0.05 0.00 80 1009.7
20260905233050 14 261 12.9 27.4 0.00 0.05 0.00 80 1009.9
20260905232539 14 254 12.9 22.5 0.00 0.05 0.00 81 1010.0
20260905232040 14 273 14.5 22.5 0.00 0.05 0.00 80 1010.0
20260905231559 14 310 12.9 19.3 0.00 0.05 0.00 81 1010.1
20260905231039 14 273 9.7 17.7 0.00 0.05 0.00 82 1010.1
20260905230539 13 292 9.7 24.1 0.00 0.05 0.00 81 1010.0
20260905230058 13 315 9.7 24.1 0.00 0.05 0.00 81 1010.2
20260905225539 13 276 14.5 24.1 0.00 0.05 0.00 80 1010.3
20260905225039 13 259 12.9 20.9 0.00 0.05 0.00 80 1010.2
20260905224602 13 294 12.9 20.9 0.00 0.05 0.00 81 1010.4
20260905224039 13 271 11.3 20.9 0.00 0.05 0.00 82 1010.4
20260905223538 13 263 12.9 20.9 0.00 0.05 0.00 83 1010.4
20260905223058 13 286 9.7 24.1 0.00 0.05 0.00 83 1010.6
20260905222539 13 277 14.5 24.1 0.00 0.05 0.00 82 1010.7
20260905222039 13 277 14.5 27.4 0.00 0.05 0.00 81 1010.7
20260905221602 13 285 14.5 27.4 0.00 0.05 0.00 82 1010.8
20260905221039 13 275 16.1 27.4 0.00 0.05 0.00 82 1011.0
20260905220539 13 260 16.1 24.1 0.00 0.05 0.00 82 1010.9
20260905220104 13 276 12.9 20.9 0.00 0.05 0.00 82 1010.9
20260905215539 13 283 11.3 19.3 0.00 0.05 0.00 83 1010.9
20260905215038 13 275 8.0 16.1 0.00 0.05 0.00 83 1011.1
20260905214556 13 261 8.0 16.1 0.00 0.05 0.00 83 1011.0
20260905214039 13 302 8.0 16.1 0.00 0.05 0.00 83 1011.0
20260905213540 13 270 8.0 16.1 0.00 0.05 0.00 83 1011.3
20260905213057 13 245 6.4 14.5 0.00 0.05 0.00 84 1011.4
20260905212540 13 225 4.8 11.3 0.00 0.05 0.00 84 1011.4
20260905212039 13 267 3.2 11.3 0.00 0.05 0.00 85 1011.4
20260905211626 12 226 1.6 11.3 0.00 0.05 0.00 85 1011.4
20260905211039 12 246 3.2 11.3 0.00 0.05 0.00 86 1011.4
20260905210539 12 244 1.6 6.4 0.00 0.05 0.00 86 1011.6
20260905210055 12 0 1.6 4.8 0.00 0.05 0.00 86 1011.6
20260905205539 12 245 1.6 6.4 0.00 0.05 0.00 87 1011.7
20260905205039 12 0 1.6 6.4 0.00 0.05 0.00 87 1011.7
20260905204605 12 245 3.2 6.4 0.00 0.05 0.00 88 1011.7
20260905204039 12 245 0.0 8.0 0.00 0.05 0.00 88 1011.7
20260905203539 12 245 1.6 8.0 0.00 0.05 0.00 88 1011.6
20260905203114 11 244 1.6 6.4 0.00 0.05 0.00 88 1011.8
20260905202539 11 244 0.0 4.8 0.00 0.05 0.00 88 1011.9
20260905202039 11 244 0.0 4.8 0.00 0.05 0.00 89 1011.9
20260905201558 11 244 0.0 4.8 0.00 0.05 0.00 89 1012.0
20260905201039 11 245 0.0 3.2 0.00 0.05 0.00 89 1012.0
20260905200539 11 244 0.0 3.2 0.00 0.05 0.00 89 1012.0
20260905195541 11 0 0.0 6.4 0.00 0.05 0.00 89 1012.3
20260905195039 11 0 0.0 6.4 0.00 0.05 0.00 89 1012.2
20260905194558 11 248 1.6 9.7 0.00 0.05 0.00 90 1012.1
20260905194040 11 0 0.0 9.7 0.00 0.05 0.00 90 1012.1